This demonstration page uses our WeatherBlox Daily Observations layout. Learn more.

Left ArrowRight Arrow

41.86663, -103.66717

Hourly Observations for January 13, 2021

Temp ( °F °C ) Dew Point ( °F °C ) Humidity (%) Winds ( mph kmh ) Pressure ( in mb ) Visibility ( mi km ) Precip ( " mm )
12:53 am 00:53 Clear 47 8.3 17 -8.3 30 30 WNW 13 20 29.91 1013 10 16 0.00 0.00
1:53 am 01:53 Clear 47 8.3 17 -8.3 30 30 WNW 18 30 29.88 1012 10 16 0.00 0.00
2:53 am 02:53 Clear 43 6.1 18 -7.8 37 37 WNW 13 20 29.90 1013 10 16 0.00 0.00
3:53 am 03:53 Clear 44 6.7 17 -8.3 34 34 W 15 24 29.90 1012 10 16 0.00 0.00
4:53 am 04:53 Clear 39 3.9 17 -8.3 41 41 NW 6 9 29.94 1014 10 16 0.00 0.00
5:53 am 05:53 Clear 42 5.6 17 -8.3 36 36 NNW 7 11 29.94 1014 10 16 0.00 0.00
6:53 am 06:53 Clear 40 4.4 18 -7.8 41 41 WNW 3 6 29.95 1014 10 16 0.00 0.00
7:53 am 07:53 Sunny 43 6.1 21 -6.1 42 42 WNW 7 11 29.91 1013 10 16 0.00 0.00
8:53 am 08:53 Sunny 50 10 24 -4.4 36 36 WNW 14 22 29.87 1012 10 16 0.00 0.00
9:53 am 09:53 Sunny 52 11.1 24 -4.4 34 34 WNW 23 37 29.85 1011 10 16 0.00 0.00
10:53 am 10:53 Sunny 54 12.2 25 -3.9 33 33 WNW 29 46 29.79 1009 10 16 0.00 0.00
11:53 am 11:53 Sunny 57 13.9 28 -2.2 33 33 WNW 24 39 29.72 1006 10 16 0.00 0.00
12:32 pm 12:32 Mostly Cloudy with Haze 57 13.9 28 -2.2 33 33 W 38 61 29.66 1004 6 10 0.00 0.00
12:53 pm 12:53 Mostly Cloudy 56 13.3 28 -2.2 34 34 W 26 43 29.70 1006 9 14 0.00 0.00
1:23 pm 13:23 Partly Cloudy 56 13.3 28 -2.2 34 34 W 30 48 29.64 1004 10 16 0.00 0.00
1:53 pm 13:53 Sunny 55 12.8 28 -2.2 35 35 W 28 44 29.67 1005 10 16 0.00 0.00
2:53 pm 14:53 Sunny 56 13.3 28 -2.2 34 34 W 22 35 29.65 1004 10 16 0.00 0.00
3:53 pm 15:53 Sunny 56 13.3 28 -2.2 34 34 W 23 37 29.65 1004 10 16 0.00 0.00
4:53 pm 16:53 Clear 56 13.3 29 -1.7 36 36 W 32 52 29.66 1004 10 16 0.00 0.00
5:53 pm 17:53 Clear 55 12.8 29 -1.7 37 37 W 22 35 29.67 1005 10 16 0.00 0.00
6:53 pm 18:53 Clear 53 11.7 29 -1.7 40 40 W 21 33 29.66 1005 10 16 0.00 0.00
7:53 pm 19:53 Mostly Clear 54 12.2 28 -2.2 37 37 WNW 23 37 29.66 1004 10 16 0.00 0.00
8:09 pm 20:09 Mostly Cloudy with Light Rain 39 3.9 29 -1.7 67 67 N 46 74 29.83 1010 3 5 0.00 0.00
8:53 pm 20:53 Windy with Snow Likely 35 1.7 29 -1.7 78 78 NNW 30 48 29.88 1012 3 5 0.00 0.00
9:04 pm 21:04 Windy with Snow Likely 35 1.7 31 -0.6 85 85 NNW 24 39 29.96 1015 4 6 0.00 0.00
9:13 pm 21:13 Windy with Snow Likely 35 1.7 31 -0.6 85 85 NNW 26 43 29.97 1015 4 6 0.00 0.00
9:24 pm 21:24 Windy with Snow Likely 34 1.1 32 0 92 92 NW 22 35 29.97 1015 2 3 0.00 0.00
9:31 pm 21:31 Windy with Snow Likely 35 1.7 32 0 89 89 NW 21 33 29.94 1014 4 6 0.00 0.00
9:53 pm 21:53 Cloudy 35 1.7 33 0.6 93 93 W 12 19 29.86 1011 10 16 0.01 0.25
10:53 pm 22:53 Cloudy 34 1.1 33 0.6 97 97 WNW 14 22 29.92 1013 10 16 0.00 0.00
11:53 pm 23:53 Clear 35 1.7 29 -1.7 78 78 NW 20 31 29.92 1013 10 16 0.00 0.00

Powered by AerisWeather